Regional Weather Roundup
Issued by NWS

Home | Current Version | Previous Version | Graphics & Text | Print | Product List | Glossary Off
Versions: 1 2 3 4 5 6 7 8 9 10 11 12 13 14 15 16 17 18 19 20 21 22 23 24 25 26 27 28 29 30 31 32 33 34 35 36 37 38 39 40 41 42 43 44 45 46 47 48 49 50

000
ASUS45 KBOU 261307
RWRCO

WEATHER ROUNDUP FOR COLORADO
NATIONAL WEATHER SERVICE DENVER/BOULDER CO
700 AM MDT SAT JUL 26 2014

NOTE: "FAIR" INDICATES FEW OR NO CLOUDS BELOW 12000 FEET WITH NO
SIGNIFICANT WEATHER AND/OR OBSTRUCTIONS TO VISIBILITY.

COZ001>005-013-030-031-261400-
...NORTHWEST COLORADO...

CITY           SKY/WX    TMP DP  RH WIND       PRES   REMARKS
CRAIG          CLOUDY    55  54  96 SW5       30.25R
HAYDEN         CLOUDY    59  46  63 SE10      30.27R
MEEKER         LGT RAIN  60  51  72 CALM      30.26R
MOUNT WERNER   NOT AVBL
STEAMBOAT SPGS CLOUDY    53  49  84 CALM      30.30R
WALDEN         MOSUNNY   52  43  71 CALM      30.38R
$$

COZ006>008-011-261400-
...WEST CENTRAL VALLEYS...

CITY           SKY/WX    TMP DP  RH WIND       PRES   REMARKS
GRAND JUNCTION CLEAR     64  53  67 E6        30.15R
MONTROSE       CLEAR     65  50  58 S5        30.24R
EAGLE          MOCLDY    54  48  82 CALM      30.34R
RIFLE          MOCLDY    64  49  57 S5        30.21R
DELTA          CLEAR     65  48  55 CALM      30.20R
NUCLA          CLEAR     63  46  55 SE5       30.28R
$$

COZ017>023-064>068-261400-
...SOUTHWEST COLORADO...

CITY           SKY/WX    TMP DP  RH WIND       PRES   REMARKS
DURANGO        PTCLDY    56  44  64 NE6       30.28R
CORTEZ         CLEAR     60  45  57 E6        30.24R
PAGOSA SPRINGS PTCLDY    57  47  69 CALM      30.37R
TELLURIDE      CLEAR     55  46  71 SE6       30.48R
WOLF CREEK PAS NOT AVBL
$$

COZ009-010-012-014-032>034-037-058>063-261400-
...CENTRAL COLORADO...

CITY           SKY/WX    TMP DP  RH WIND       PRES   REMARKS
ASPEN          PTCLDY    55  45  68 SW5       30.37R
BUENA VISTA    CLEAR     53  46  78 CALM      30.42R
COPPER MTN     CLOUDY    55  36  47 SW5       30.70R
BERTHOUD PASS  CLOUDY    46  32  57 NW14      30.73S
COTTONWOOD PAS CLEAR     61  39  44 SE3       30.54R
GUNNISON       PTCLDY    48  45  87 N5        30.46R
KREMMLING      CLOUDY    50  45  81 CALM      30.39S
LEADVILLE      PTCLDY    44  41  89 NE3       30.54R
MONARCH PASS   PTCLDY    52  36  54 NW7       30.80R
SALIDA         CLEAR    N/A N/A N/A W3        30.46R
SUNLIGHT       CLOUDY    55  43  62 CALM      30.61R
WILKERSON PASS NOT AVBL
$$

COZ069>075-261400-
...SAN LUIS VALLEY/SANGRE DE CRISTO MOUNTAINS...

CITY           SKY/WX    TMP DP  RH WIND       PRES   REMARKS
ALAMOSA        PTCLDY    53  48  83 CALM      30.37R
LA VETA PASS   NOT AVBL
SAGUACHE       PTCLDY    55  46  71 N9        30.40R
$$

COZ035-036-038>040-261400-
...NORTHERN COLORADO FRONT RANGE...

CITY           SKY/WX    TMP DP  RH WIND       PRES   REMARKS
DENVER INTL AP MOSUNNY   73  46  38 SW10      30.12R
DMNS CITY PARK   N/A     69  49  50 S6        30.13R
AURORA         MOSUNNY   65  51  59 S9        30.16R
FRONT RANGE AP NOT AVBL
ERIE MUNI ARPT MOSUNNY   66  53  63 S5        30.10R
BOULDER MUN AP MOSUNNY   72  46  40 CALM      30.10R
CENTENNIAL     MOSUNNY   66  50  56 S5        30.17R
BROOMFIELD     PTSUNNY   68  46  45 CALM      30.15R
FORT COLLINS   MOSUNNY   61  55  82 CALM      30.12R
LONGMONT       MOSUNNY   70  56  59 N5        30.11R
$$

COZ041-046-047-076>085-087-088-261400-
...PIKES PEAK/PALMER DIVIDE AND SOUTHERN FOOTHILLS...

CITY           SKY/WX    TMP DP  RH WIND       PRES   REMARKS
COLO. SPRINGS  PTSUNNY   73  44  35 NW10      30.21R
A. F. ACADEMY  SUNNY     61  46  58 N10       30.24R
ELLICOTT       SUNNY     64  52  64 CALM      30.18R
FALCON         SUNNY     70  43  37 NW8       30.26R
FORT CARSON    SUNNY     65  50  57 N8        30.17R
LIMON          SUNNY     60  54  80 CALM      30.13R
MONUMENT HILL  NOT AVBL
TRINIDAD       SUNNY     66  51  58 W15       30.18R
$$

COZ042>045-048>051-090-091-261400-
...NORTHEAST COLORADO...

CITY           SKY/WX    TMP DP  RH WIND       PRES   REMARKS
GREELEY ARPT   MOSUNNY   57  52  82 N3        30.12R
AKRON          MOSUNNY   68  53  58 W12       30.06R
BURLINGTON     SUNNY     69  59  70 W7        30.03R
WRAY             N/A     68  57  68 W9        29.99R
STERLING       MOSUNNY   68  61  77 NW8       30.04R
HOLYOKE        SUNNY     72  59  64 W10       29.97S
FORT MORGAN    MOSUNNY   69  53  55 W8        30.08R
$$

COZ086-089-092>099-261400-
...SOUTHEAST COLORADO...

CITY           SKY/WX    TMP DP  RH WIND       PRES   REMARKS
PUEBLO         SUNNY     64  57  78 W7        30.09R
LA JUNTA       SUNNY     69  61  75 NW8       30.05R
LAMAR          SUNNY     68  63  84 SW9       30.00R
SPRINGFIELD      N/A     68  57  68 W10       30.05S
$$



USA.gov is the U.S. government's official web portal to all federal, state and local government web resources and services.